Regional Weather Roundup
Issued by NWS Raleigh/Durham, NC

Home | Current Version | Previous Version | Text Only | Print | Product List | Glossary On
Versions: 1 2 3 4 5 6 7 8 9 10 11 12 13 14 15 16 17 18 19 20 21 22 23 24 25 26 27 28 29 30 31 32 33 34 35 36 37 38 39 40 41 42 43 44 45 46 47 48 49 50
000
ASUS42 KRAH 051810
RWRRAH
NORTH CAROLINA WEATHER ROUNDUP
NATIONAL WEATHER SERVICE RALEIGH NC
100 PM EST THU MAR 05 2015

NOTE: "FAIR" INDICATES FEW OR NO CLOUDS BELOW 12,000 FEET WITH NO
SIGNIFICANT WEATHER AND/OR OBSTRUCTIONS TO VISIBILITY.

NCZ001-053-055-056-065-067-051900-
WESTERN NORTH CAROLINA

CITY           SKY/WX    TMP DP  RH WIND       PRES   REMARKS
ASHEVILLE      CLOUDY    38  50 100 N10       29.99F WCI  31
JEFFERSON      RAIN      34  34  98 N3        29.98S
MORGANTON      RAIN      47  47 100 N3        30.02S
HICKORY        LGT RAIN  46  45  96 NE8       29.98R FOG
RUTHERFORDTON  LGT RAIN  49  49  98 NE6       29.97S
MOUNT AIRY     RAIN      40  38  91 N3        30.07R
BOONE          LGT RAIN  34  34  99 W14G21    29.98S WCI  25
$$

NCZ021-022-025-041-071-084-088-051900-
CENTRAL NORTH CAROLINA

CITY           SKY/WX    TMP DP  RH WIND       PRES   REMARKS
CHARLOTTE      RAIN      46  43  87 N22G46    29.98R FOG
GREENSBORO     LGT RAIN  40  38  93 NE13G22   30.03S FOG     WCI  32
WINSTON-SALEM  RAIN      42  39  89 NE10      30.04F FOG
RALEIGH-DURHAM LGT RAIN  39  36  87 NE20G26   29.98R FOG     WCI  30
FORT BRAGG     PTSUNNY   71  62  74 SW13G21   29.86F
FAYETTEVILLE   LGT RAIN  71  62  73 SW13      29.89F
BURLINGTON     HVY RAIN  39  36  89 N18G26    30.05R FOG     WCI  30
LAURINBURG     CLOUDY    73  61  65 SW21G28   29.90F
$$

NCZ011-015-027-028-043-044-047-080-103-051900-
NORTHEASTERN NORTH CAROLINA

CITY           SKY/WX    TMP DP  RH WIND       PRES   REMARKS
ROCKY MT-WILSO RAIN      40  38  93 NE16G26   30.00R FOG     WCI  31
GREENVILLE     LGT RAIN  43  41  93 NE9       30.00F
WASHINGTON     CLOUDY    42  40  93 NE9G20    29.99S
ELIZABETH CITY LGT RAIN  39  36  89 N18       30.03S WCI  30
MANTEO         CLOUDY    37  37 100 N20G28    30.00F WCI  27
CAPE HATTERAS  FOG       44  43  96 N12G22    29.97F VSB 1
$$

NCZ078-087-090-091-093-098-101-051900-
SOUTHEASTERN NORTH CAROLINA

CITY           SKY/WX    TMP DP  RH WIND       PRES   REMARKS
LUMBERTON      CLOUDY    75  62  64 SW16G25   29.90F
GOLDSBORO      LGT RAIN  52  52 100 N15       29.91R
KINSTON        CLOUDY    52  48  87 NE17      29.95R
KENANSVILLE    PTSUNNY   75  59  57 SW16G32   29.91F
NEW BERN         N/A     83  60  45 SW28G38   29.90F
CHERRY POINT   FAIR      76  60  57 S15G26    29.92F
BEAUFORT       CLOUDY    61  60  97 SW21G30   29.95F FOG
JACKSONVILLE   FAIR      80  60  50 SW20G28   29.90F
WILMINGTON     FAIR      74  63  68 SW16G26   29.93F
$$




USA.gov is the U.S. government's official web portal to all federal, state and local government web resources and services.